Location: Unspecified
(0.0000°N, 0.0000°E)
Time: 16:55:51
(UTC+00:00)

Envisat - Pass Details

Date: 04 May 2021
Orbit: 764 x 766 km, 98.1° (Epoch: 14 May)

Event Time Altitude Azimuth Distance (km) Brightness Sun altitude
Rises 05:05:25 0° 12° (NNE) 3,212 6.6 -12.3°
Reaches altitude 10° 05:07:43 10° 12° (NNE) 2,290 5.9 -11.8°
Maximum altitude 05:12:46 90° 79° (E) 768 3.0 -10.6°
Drops below altitude 10° 05:17:51 10° 192° (SSW) 2,300 5.2 -9.4°
Sets 05:20:09 0° 192° (SSW) 3,229 6.0 -8.8°
